STARLINK-36039

Last updated on Wed Dec 31 2025 00:02:06 GMT+0000 (Coordinated Universal Time)

1 66612U 25270AA 25364.61906996 .00079019 00000+0 18793-2 0 9998 2 66612 43.0025 89.6090 0001269 291.0488 69.0233 15.40701355 7101
UTC large
Height (km)
Speed (km/s)
/
Latitude / Longitude
Inclination (degrees)
Orbital Period (minutes)
Azimuth
Elevation
Range (km)
Doppler Factor

Next 0 passes for location: London (51.5072 / 0.1276)

Sorry there are no passes over London.